This is the latest recevied weather packets stored in our database for station/object KC2WGU. If no packets are shown the sender has not sent any weather packets the latest 10 day(s).
| Time | Temp. | Humidity | Pressure | Rain* | Wind** | Luminosity | Snow |
|---|---|---|---|---|---|---|---|
| 1777738215 | 8.33° C | 61% | 1010.7 hPa | 0 mm | - | 0 W/m² | - |
| 1777737618 | 7.78° C | 65% | 1010.6 hPa | 0 mm | - | 0 W/m² | - |
| 1777737016 | 7.78° C | 64% | 1010.8 hPa | 0 mm | - | 0 W/m² | - |
| 1777736416 | 6.67° C | 63% | 1010.8 hPa | 0 mm | - | 0 W/m² | - |
| 1777735817 | 7.78° C | 67% | 1010.8 hPa | 0 mm | - | 0 W/m² | - |
| 1777735215 | 8.33° C | 70% | 1010.8 hPa | 0 mm | - | 0 W/m² | - |
| 1777734615 | 7.22° C | 70% | 1010.8 hPa | 0 mm | - | 0 W/m² | - |
| 1777734016 | 7.22° C | 74% | 1010.8 hPa | 0 mm | - | 0 W/m² | - |
| 1777733415 | 6.67° C | 77% | 1010.8 hPa | 0 mm | - | 0 W/m² | - |
| 1777732816 | 5.56° C | 80% | 1010.9 hPa | 0 mm | - | 0 W/m² | - |
| 1777732216 | 5° C | 79% | 1010.8 hPa | 0 mm | - | 0 W/m² | - |
| 1777731616 | 5.56° C | 77% | 1010.8 hPa | 0 mm | - | 0 W/m² | - |
| 1777731016 | 6.67° C | 77% | 1010.8 hPa | 0 mm | - | 0 W/m² | - |
| 1777730416 | 6.11° C | 79% | 1010.8 hPa | 0 mm | - | 0 W/m² | - |
| 1777729816 | 6.11° C | 78% | 1010.8 hPa | 0 mm | - | 0 W/m² | - |
| 1777729216 | 6.11° C | 80% | 1010.8 hPa | 0 mm | - | 0 W/m² | - |
| 1777728616 | 6.11° C | 79% | 1010.9 hPa | 0 mm | - | 0 W/m² | - |
| 1777728016 | 6.11° C | 81% | 1010.9 hPa | 0 mm | - | 0 W/m² | - |
| 1777727415 | 5.56° C | 81% | 1010.8 hPa | 0 mm | - | 0 W/m² | - |
| 1777726816 | 5.56° C | 83% | 1010.8 hPa | 0 mm | - | 0 W/m² | - |
| 1777726216 | 5° C | 84% | 1010.8 hPa | 0 mm | - | 0 W/m² | - |
| 1777725616 | 5° C | 85% | 1010.8 hPa | 0 mm | - | 0 W/m² | - |
| 1777725016 | 5° C | 85% | 1010.7 hPa | 0 mm | - | 0 W/m² | - |
| 1777724415 | 5.56° C | 86% | 1010.7 hPa | 0 mm | - | 0 W/m² | - |
| 1777723816 | 5.56° C | 87% | 1010.7 hPa | 0 mm | - | 0 W/m² | - |
* Rain latest hour (hover to see other rain measurements)
** Current wind speed in m/s (hover to see current wind gust speed)